This is the latest recevied weather packets stored in our database for station/object W1HS. If no packets are shown the sender has not sent any weather packets the latest 10 day(s).
| Time | Temp. | Humidity | Pressure | Rain* | Wind** | Luminosity | Snow |
|---|---|---|---|---|---|---|---|
| 1777677798 | 12.78° C | 38% | 990.1 hPa | 0 mm | - | 16 W/m² | - |
| 1777677198 | 12.78° C | 39% | 989.8 hPa | 0 mm | - | 37 W/m² | - |
| 1777676598 | 12.78° C | 40% | 989.8 hPa | 0 mm | - | 33 W/m² | - |
| 1777675999 | 13.33° C | 38% | 989.8 hPa | 0 mm | - | 46 W/m² | - |
| 1777675398 | 13.33° C | 36% | 989.8 hPa | 0 mm | - | 81 W/m² | - |
| 1777674798 | 13.89° C | 38% | 989.8 hPa | 0 mm | - | 181 W/m² | - |
| 1777674201 | 13.89° C | 36% | 989.7 hPa | 0 mm | - | 255 W/m² | - |
| 1777673598 | 13.89° C | 37% | 989.8 hPa | 0 mm | - | 304 W/m² | - |
| 1777673000 | 13.33° C | 35% | 989.8 hPa | 0 mm | - | 373 W/m² | - |
| 1777672398 | 12.78° C | 42% | 989.8 hPa | 0 mm | - | 260 W/m² | - |
| 1777671798 | 13.33° C | 39% | 990 hPa | 0 mm | - | 113 W/m² | - |
| 1777671198 | 13.89° C | 38% | 989.8 hPa | 0 mm | - | 378 W/m² | - |
| 1777670600 | 13.33° C | 37% | 989.9 hPa | 0 mm | - | 563 W/m² | - |
| 1777670002 | 13.33° C | 36% | 989.7 hPa | 0 mm | - | 584 W/m² | - |
| 1777669400 | 13.33° C | 39% | 989.7 hPa | 0 mm | - | 601 W/m² | - |
| 1777668800 | 13.89° C | 39% | 989.5 hPa | 0 mm | - | 624 W/m² | - |
| 1777668200 | 13.33° C | 38% | 989.7 hPa | 0 mm | - | 652 W/m² | - |
| 1777667600 | 13.33° C | 39% | 989.6 hPa | 0 mm | - | 629 W/m² | - |
| 1777667002 | 13.33° C | 42% | 989.6 hPa | 0 mm | - | 666 W/m² | - |
| 1777666400 | 13.33° C | 39% | 989.7 hPa | 0 mm | - | 707 W/m² | - |
| 1777665802 | 12.78° C | 40% | 989.8 hPa | 0 mm | - | 770 W/m² | - |
| 1777665200 | 13.33° C | 41% | 989.9 hPa | 0 mm | - | 874 W/m² | - |
| 1777664600 | 13.33° C | 39% | 989.9 hPa | 0 mm | - | 800 W/m² | - |
| 1777664000 | 13.33° C | 39% | 989.9 hPa | 0 mm | - | 806 W/m² | - |
| 1777663400 | 13.33° C | 44% | 990 hPa | 0 mm | - | 851 W/m² | - |
* Rain latest hour (hover to see other rain measurements)
** Current wind speed in m/s (hover to see current wind gust speed)